Orbital elements:
2001 JM1
Epoch 2003 June 10.0 TT = JDT 2452800.5                 MPC
M  85.02692              (2000.0)            P               Q
n   0.55820995     Peri.  321.77762     -0.96905836     +0.12334205
a   1.4608457      Node   226.76491     -0.08118166     -0.97727223
e   0.3109229      Incl.   17.06563     -0.23309961     -0.17241152
P   1.77           H   19.0           G   0.15           U   2
Residuals in seconds of arc
010512 608  0.3-  0.3-    010516 610  0.6-  0.2+    010523 151  0.0   0.6-
010512 608  0.2-  0.4-    010516 610  0.5-  0.4+    010523 560  1.8+  0.2+
010512 608  0.3-  0.6-    010516 610  0.5-  0.6+    010523 557  0.1-  0.0
010513 557  0.0   0.1+    010516 610  0.6-  0.7+    010523 604  0.1+  0.2+
010513 557  0.1+  0.1+    010517 349  0.0   0.2-    010523 196  0.0   1.0+
010513 557  0.0   0.2+    010517 349  0.2-  0.5-    010523 557  0.3-  0.1-
010513 557  0.1+  0.2+    010517 349  0.5+  0.0     010523 604 (2.2+  0.3+)
010513 118  0.1-  0.1-    010517 349  0.3-  0.8-    010523 557  0.3-  0.1-
010513 113  1.7+  1.2+    010518 726  1.0+  0.4+    010523 196  0.4+  0.4-
010513 118  0.1+  0.0     010518 726  0.4-  0.5+    010523 557  0.1-  0.2-
010513 113  0.3+  0.1-    010518 726  1.5-  0.3+    010524 557  0.1+  0.0
010513 118  0.1+  0.1+    010518 726  0.3-  0.1-    010524 214  0.5-  0.2-
010513 113  0.0   0.0     010518 726  0.3-  0.1+    010524 557  0.2+  0.0
010513 118  0.1-  0.1+    010518 726  0.0   0.5+    010524 214  0.2-  0.0
010513 113  0.0   0.1+    010518 726  0.3-  0.1+    010524 214  0.3-  0.2-
010513 113  0.5-  0.0     010518 178(21.8+  4.5+)   010524 557  0.1-  0.1+
010513 113  0.9-  0.4-    010518 178(15.2- 13.7-)   010524 214  0.5-  0.6-
010513 113  0.6-  0.2-    010518 178 (7.9+  6.9+)   010524 557  0.4-  0.2-
010513 113  0.8-  0.1-    010518 178 (9.7+  7.0+)   010524 557  0.4-  0.1-
010513 113  0.1-  0.2-    010518 178 (9.7+  7.2+)   010524 604  0.9+  0.1+
010513 739  1.1+  0.3+    010519 104 (2.1-  0.9-)   010524 604  1.4-  1.4-
010513 739  1.7+  0.2-    010519 104  0.5-  0.2-    010524 557  0.4-  0.2-
010513 649  0.5+  0.5-    010519 104  0.9-  0.3-    010524 557  0.3-  0.3-
010513 649  0.4-  0.1-    010519 151  0.1-  0.6-    010524 557  0.3-  0.2-
010513 649  0.2+  0.3-    010519 151  0.3-  0.1-    010525 557  0.3-  0.2-
010513 649  0.1-  0.0     010519 151  0.1+  0.3-    010525 557  0.1-  0.1-
010513 644  0.2-  0.1-    010519 610  0.4+  0.0     010525 726  0.0   0.3-
010513 644  0.3-  0.2+    010519 118  0.0   0.1+    010525 726  0.5+  0.4+
010513 644  0.4-  0.2-    010519 151  0.0   0.1-    010525 726  1.0+  1.1-
010513 608  0.2+  0.7-    010519 610  0.3+  0.1+    010525 726  0.9-  1.3-
010513 608  0.1+  0.7-    010519 151  0.1-  0.3-    010525 726  0.5-  0.8-
010513 608  0.4+  0.6-    010519 610  0.3+  0.2+    010525 726  0.6-  0.8-
010513 402  1.3+  1.8+    010519 560  1.2+  0.1+    010525 739  0.1-  0.1+
010513 402  1.2+  1.8+    010519 118  0.3-  0.2-    010525 739  0.7+  0.2+
010513 402  1.1+  1.5+    010519 151  0.2-  0.4-    010525 739  0.6+  0.3+
010513 046  0.0   0.3+    010519 610  0.1+  0.2+    010525 608  0.6-  0.6-
010513 046  0.2-  0.0     010519 560  0.6+  0.4+    010525 608  0.5-  0.8-
010513 046  0.0   0.2+    010519 610  0.1+  0.3+    010525 608  0.6-  0.5-
010513 046  0.1+  0.1+    010519 610  0.0   0.4+    010525 903  0.9-  0.9-
010513 046  0.0   0.1+    010519 587  0.3+  1.1+    010525 903  1.0-  1.2-
010513 151  0.3-  0.2+    010519 610  0.0   0.6+    010525 360  0.4-  0.3+
010513 151  0.1-  0.1-    010519 587  0.4-  0.5+    010525 360  0.6-  0.2+
010513 557  0.1-  0.1-    010519 610  0.1-  0.6+    010525 360  0.5-  0.1+
010513 151  0.0   0.2+    010519 587  0.1+  0.4+    010525 636  0.8-  0.3+
010513 629  0.5+  0.3+    010519 610  0.1-  0.7+    010525 636  0.3-  0.2-
010513 629  0.6-  0.3-    010519 560  1.0+  0.5+    010525 636  0.1-  0.5+
010513 151  0.1+  0.2+    010519 560  0.4+  0.5+    010525 636  0.5+  0.4+
010513 629  0.6+  0.5+    010519 196  0.4+  0.7+    010525 196  0.8-  0.1+
010513 629  0.6+  0.1-    010519 196  0.1+  0.4+    010525 113  0.3-  0.0
010513 629  0.4-  0.4+    010519 196  0.4+  0.0     010525 145  0.0   0.3-
010513 151  0.0   0.2+    010519 196  0.3-  0.4+    010525 113  0.2-  0.2+
010513 557  0.4-  0.1-    010519 196  0.5+  0.8+    010525 113  0.4-  0.1+
010513 151  0.3-  0.0     010519 196  0.4-  0.0     010525 113  0.2-  0.2+
010513 151  0.1-  0.3+    010519 557  0.1+  0.1-    010525 145  0.3+  0.0
010513 151  0.2-  0.1-    010519 557  0.0   0.0     010525 113  0.1-  0.3+
010513 165  0.3+  0.3-    010519 557  0.1+  0.1-    010525 145  0.2-  0.0
010513 151  0.2-  0.1+    010519 636  0.7-  0.1+    010525 196  0.4-  0.0
010513 165  0.7+  0.5+    010519 557  0.3-  0.1-    010525 145  0.0   0.1-
010513 165  0.0   0.3+    010519 636  0.1-  0.2+    010525 145  0.1+  0.2+
010513 151  0.2-  0.1-    010519 636  0.3-  0.2+    010525 145  0.4+  0.2+
010513 165  0.6+  0.2+    010519 611  0.4-  0.2+    010525 145  0.3-  0.3+
010513 611  0.1+  0.4-    010519 611  0.3-  0.0     010526 939  0.5+  0.6-
010513 611  0.8-  0.9-    010519 611  0.0   0.1+    010526 939  0.4+  1.1-
010513 611  0.4+  0.6-    010520 557  0.1-  0.1+    010526 939  0.5-  0.2-
010513 104  0.0   0.1+    010520 557  0.3-  0.1-    010526 682  1.2+  0.6+
010513 104  0.1+  0.0     010520 349  0.8+  0.1-    010526 682 (2.7+  1.6+)
010513 104  0.1+  0.1-    010520 349  0.8+  0.2-    010526 682  0.6-  0.1-
010513 157  0.0   0.2+    010520 349  0.5+  0.5-    010526 682  0.2-  0.2+
010513 611  0.4+  0.3-    010520 349  0.1-  0.9-    010526 952  0.5-  0.4-
010513 611  0.1+  0.5-    010520 557  0.2+  0.1-    010526 952  0.3+  0.1-
010513 611  0.3+  0.3-    010520 611  0.3+  0.7-    010526 952  0.7+  0.1-
010513 118  0.2-  0.2+    010520 611  0.7-  0.1+    010527 682 (3.4+  0.1+)
010513 157  0.1-  0.4+    010520 611  0.3+  0.5-    010527 739 (2.5+  0.2-)
010513 118  0.1-  0.1+    010520 557  0.0   0.3-    010527 682 (2.8+  0.9+)
010513 118  0.1-  0.1+    010520 196  0.5+  0.4+    010527 739  1.1+  0.1-
010513 157  0.4-  0.3+    010520 636  0.2+  0.2+    010527 739  0.1+  0.0
010513 557  0.1-  0.1-    010520 557  0.1+  0.3-    010527 739  1.1+  0.5-
010513 557  0.4-  0.0     010520 636  0.3+  0.1+    010527 682 (3.1-  0.0 )
010513 595  0.1-  0.1-    010520 196  0.0   0.3+    010527 682  0.1+  0.3+
010513 595  0.3-  0.0     010520 636  0.3+  0.3+    010527 145  0.1+  0.6+
010513 540  0.2-  0.0     010520 196  1.1+  0.8+    010527 145  0.4+  1.0+
010513 540  0.7-  0.4-    010520 557  0.2+  0.3-    010527 145  0.6+  0.7+
010513 540  0.3-  0.1+    010520 118  0.0   0.2-    010528 402  0.3+  0.1-
010513 595  0.4-  0.0     010520 118  0.3+  0.2-    010528 402  0.0   0.3-
010513 540  0.3-  0.1+    010520 118  0.2+  0.2-    010528 402  0.4-  0.4-
010513 595  0.4-  0.1-    010520 196  0.9+  0.1-    010528 903  1.6-  0.9-
010513 557  0.2+  0.5+    010520 557  0.1+  0.3-    010528 903  0.2+  0.0
010514 726  0.5-  0.5-    010520 196  1.5+  0.1-    010528 903  0.2+  0.8-
010514 726  0.9-  0.3-    010520 557  0.4+  0.4-    010529 118  0.0   0.1-
010514 739  0.1+  0.8+    010521 557  0.3+  0.4-    010529 118  0.0   0.1-
010514 726  0.1+  0.2+    010521 557  0.5+  0.3-    010529 118  0.1-  0.1-
010514 739  0.2+  0.2-    010521 926  0.2+  0.2-    010530 670  1.2-  0.6+
010514 726  0.4-  0.4-    010521 926  0.0   0.2-    010530 658  0.2-  0.0
010514 739  0.3+  0.4+    010521 926  0.5+  0.1+    010530 658  0.3-  0.3-
010514 726  0.8-  0.1-    010521 926  0.6+  0.4-    010530 658  0.2-  0.2-
010514 726  0.5-  0.5-    010521 557  0.2+  0.1-    010530 670  0.6+  0.8+
010514 726  0.6-  0.6-    010521 557  0.0   0.0     010530 670  0.1-  0.0
010514 726  0.4-  0.0     010521 196  0.3-  0.2+    010530 118  0.0   0.1+
010514 726  0.6-  0.2-    010521 557  0.3-  0.1-    010530 118  0.7+  0.2+
010514 926  0.3-  0.4-    010521 196  0.4-  0.3+    010530 118  0.3+  0.1-
010514 926  0.6-  0.1+    010521 196  0.1+  0.3+    010531 704  0.0   0.0
010514 926  0.4-  0.1-    010521 557  0.1-  0.0     010531 704  0.4-  0.1-
010514 926  0.8-  0.7-    010521 196  0.0   0.7+    010531 704  0.3-  0.7+
010514 926  0.1-  0.3+    010521 557  0.1-  0.2+    010531 704  0.4-  0.1+
010514 926  0.9+  0.8+    010521 557  0.2-  0.3+    010601 118  0.1-  0.3-
010514 649  0.3-  0.1-    010522 557  0.3+  0.1+    010601 118  0.0   0.5-
010514 649  0.0   0.0     010522 739  0.3-  0.1-    010602 340  0.2+  1.8-
010514 649  0.2-  0.7+    010522 739  0.1+  0.1-    010602 340  0.8+  0.9+
010514 649  0.9-  0.2+    010522 739  0.3+  0.0     010603 704  1.1+  0.1+
010514 608  0.2-  0.6-    010522 557  0.3-  0.1-    010603 704  0.3-  0.4+
010514 608  1.3+  0.2+    010522 557  0.4-  0.2-    010603 704  0.3+  0.5+
010514 608  1.1+  0.5+    010522 557  0.5-  0.1-    010603 704  0.6+  0.7+
010514 428  0.1-  0.1-    010522 557  0.3-  0.0     010603 704  0.3-  0.9+
010514 428  0.4-  0.1+    010522 557  0.2-  0.1-    010604 670  0.9+  0.3+
010514 428  0.4-  0.1-    010522 557  0.1-  0.2+    010604 670  0.6-  0.3+
010514 428  0.2-  0.0     010523 557  0.1-  0.1-    010604 560  1.6+  1.1+
010514 428  0.3-  0.2+    010523 306  0.1-  0.4-    010604 560 (2.4+  0.3-)
010514 322  0.1-  0.0     010523 306  0.9-  0.3+    010604 560  1.9+  0.3+
010514 322  0.1-  0.3+    010523 306 (3.1-  1.6-)   010604 560 (3.6+  0.5+)
010514 322  0.1-  0.1-    010523 557  0.2-  0.0     010607 360  0.1-  0.2+
010514 322  0.1-  0.1-    010523 306  1.6-  1.8-    010607 360  0.4-  0.2+
010515 670  0.1-  0.1+    010523 306 (2.2+  2.5-)   010607 360  0.1-  0.1-
010515 670  0.1+  0.5+    010523 610  0.0   0.1-    010607 118  0.4-  0.7+
010515 151  0.0   0.0     010523 610  0.1-  0.2-    010607 118  0.6-  0.3-
010515 151  0.2-  0.1-    010523 610  0.0   0.2-    010607 118  0.3-  0.4+
010515 151  0.1+  0.1-    010523 610  0.1-  0.3-    010611 670  0.6+  1.1+
010515 151  0.1-  0.2-    010523 610  0.0   0.4-    010611 670  0.3-  0.2-
010515 151  0.1-  0.2-    010523 557  0.2-  0.0     010611 560  1.3+  0.6-
010515 151  0.1-  0.3-    010523 610  0.1-  0.3-    010611 560 (2.1+  0.3+)
010516 739  0.5+  0.6+    010523 610  0.1-  0.4-    010611 560  1.0+  0.9-
010516 739  1.3+  0.8-    010523 610  0.0   0.5-    010613 118  0.2-  0.4+
010516 739  0.2+  0.7+    010523 610  0.1-  0.5-    010613 118  0.7-  0.3-
010516 739 (2.4-  1.0+)   010523 610  0.1+  0.5-    010620 493  0.1+  0.1+
010516 739  0.4+  0.3+    010523 560  1.2+  0.4-    010620 493  0.0   0.2+
010516 739  0.5+  0.3+    010523 610  0.0   0.5-    010625 587  0.1-  0.6+
010516 739  1.1+  0.4+    010523 610  0.1+  0.6-    010625 587  0.3+  1.5+
010516 739  0.6+  0.4+    010523 560  1.9+  0.5-    010630 644  0.3-  0.4+
010516 610  0.5+  0.3-    010523 151  0.2-  0.5-    010630 644  0.1-  0.4+
010516 610  0.1-  0.2-    010523 610  0.1+  0.5-    010630 644  0.0   0.4+
010516 610  0.2-  0.1-    010523 151  0.1+  0.6-    030822 540  0.1+  1.0+
010516 610  0.4-  0.1-    010523 560  0.8+  0.5+    030823 540  0.3+  1.0+
010516 610  0.4-  0.0     010523 151  0.1-  0.6-    030823 540  0.8-  0.9+
010516 610  0.5-  0.1+    010523 610  0.1+  0.5-

